421  
ASUS41 KCTP 111410  
RWRCTP  
 
REGIONAL WEATHER ROUNDUP  
NATIONAL WEATHER SERVICE STATE COLLEGE PA  
1000 AM EDT THU AUG 11 2022  
 
NOTE: "FAIR" INDICATES FEW OR NO CLOUDS BELOW 12,000 FEET WITH NO  
SIGNIFICANT WEATHER AND/OR S TO VISIBILITY
.  
 
* = STATION THAT DOES NOT REPORT PRECIPITATION /E.G. RAIN...SNOW...ETC/  
THUNDER OR FOG.
 
 
PAZ002>004-007>009-013>016-020>023-029>032-111500-  
WESTERN PENNSYLVANIA  
 
CITY SKY/WX TMP DP RH WIND PRES REMARKS
 
ERIE CLOUDY 71 58 63 NW7 30.06R  
MEADVILLE CLOUDY 68 61 78 W5 30.08R  
FRANKLIN CLOUDY 67 63 87 W5 30.09R  
NEW CASTLE CLOUDY 69 65 86 NW5 N/A  
BEAVER COUNTY MOSUNNY 75 63 66 NW5 30.08S  
BUTLER MOSUNNY N/A N/A N/A SW5 30.08F  
PITTSBURGH INT PTSUNNY 71 63 75 W5 30.07S  
PITTSBURGH MOSUNNY 73 59 61 W6 30.07F  
INDIANA* SUNNY 64 64 100 W6 30.11S  
LATROBE SUNNY 70 61 73 CALM 30.08  
WASHINGTON CO* MOSUNNY 71 64 78 W8 30.11F  

 
 
PAZ004>006-010>012-017>019-024>028-033>037-041-042-045-046-049>053-111500-  
CENTRAL PENNSYLVANIA  
 
CITY SKY/WX TMP DP RH WIND PRES REMARKS
 
BRADFORD PTSUNNY 67 60 78 NW7 30.06S  
ST MARYS CLOUDY 64 59 82 W5 30.09  
DUBOIS N/A 68 59 73 W8 30.07S  
CLEARFIELD MOSUNNY 67 60 78 SW5 30.06S  
JOHNSTOWN SUNNY N/A N/A N/A NW6 30.09F  
SOMERSET FAIR 64 50 59 NW6 30.11S  
ALTOONA SUNNY 72 56 57 NW6 30.06F  
STATE COLLEGE MOSUNNY 72 57 60 CALM 30.04F  
REEDSVILLE FAIR 75 68 78 CALM 30.01  
WELLSBORO FAIR 68 63 83 W9 30.03S  
WILLIAMSPORT SUNNY 74 59 59 SW5 29.97F  
SELINSGROVE SUNNY 77 61 57 VRB6 29.99F  
FT INDIANTOWN PTSUNNY 76 59 54 NW6 29.96S  
CAPITAL CITY MOSUNNY 79 59 50 NW9 29.98S  
HARRISBURG MOSUNNY 77 58 51 NW10 29.97S  
YORK MOSUNNY 75 57 53 NW10 29.98F  

 
 
PAZ038>040-043-044-047-048-054-055-060>062-067>071-111500-  
EASTERN PENNSYLVANIA  
 
CITY SKY/WX TMP DP RH WIND PRES REMARKS
 
TOWANDA SUNNY 73 61 64 SW3 30.00F  
SCRANTON MOSUNNY 74 59 59 CALM 30.00S  
MOUNT POCONO MOSUNNY 72 57 59 N6 30.01S  
HAZLETON FAIR 72 61 68 NW5 30.04F  
LEHIGHTON FAIR 77 55 47 W3 29.97F  
ALLENTOWN MOSUNNY 77 59 53 VRB3 29.95F  
QN CITY/ALNTWN FAIR 79 61 53 NW5 29.96F  
QUAKERTOWN* MOSUNNY 75 63 64 N6 29.96F  
PERKASIE* MOSUNNY 75 66 73 NE3 29.97S  
DOYLESTOWN MOSUNNY 78 64 61 CALM 29.94F  
READING MOSUNNY 80 64 58 NW5 29.94F  
LANCASTER MOSUNNY 79 63 57 N5 29.96S  
COATESVILLE MOSUNNY 77 68 73 N10 29.97F  
WEST CHESTER PTSUNNY 77 70 78 N7 29.96S  
POTTSTOWN PTSUNNY 75 64 68 N7 29.97S  
BLUE BELL MOSUNNY 77 69 77 CALM 29.95F  
NORTH PHILA LGT RAIN 77 70 79 NW8 29.94F  
PHILADELPHIA PTSUNNY 78 74 87 NW8 29.93F  

 
 
 
CLICK HERE TO GO TO PREVIOUS BULLETINS.

The Nexlab PA Page Main Text Page